Location: Béaulencourt
(50.0796°N, 2.8795°E)
Time: 05:49:52
(UTC+00:00)

Meteor 2-10 Rocket - Pass Details

Date: 20 January 2026
Orbit: 733 x 881 km, 81.2° (Epoch: 18 February)

Event Time Altitude Azimuth Distance (km) Brightness Sun altitude
Exits shadow 05:03:47 - 195° (SSW) 2,564 6.1 -24.1°
Reaches altitude 10° 05:04:29 10° 195° (SSW) 2,292 5.8 -24.0°
Maximum altitude 05:09:39 79° 283° (WNW) 804 3.4 -23.2°
Drops below altitude 10° 05:15:04 10° 10° (N) 2,403 6.1 -22.3°
Sets 05:17:32 0° 12° (NNE) 3,363 6.9 -21.9°
